Regional Weather Roundup
Issued by NWS

Home | Current Version | Previous Version | Text Only | Print | Product List | Glossary Off
Versions: 1 2 3 4 5 6 7 8 9 10 11 12 13 14 15 16 17 18 19 20 21 22 23 24 25 26 27 28 29 30 31 32 33 34 35 36 37 38 39 40 41 42 43 44 45 46 47 48 49 50

996
ASUS43 KIND 220559
RWRIN

WEATHER ROUNDUP FOR INDIANA
NATIONAL WEATHER SERVICE INDIANAPOLIS IN
200 AM EDT SUN APR 22 2018

NOTE: "FAIR" INDICATES FEW OR NO CLOUDS BELOW 12,000 FEET WITH NO
SIGNIFICANT WEATHER AND/OR OBSTRUCTIONS TO VISIBILITY.

* - STATION DOES NOT REPORT WEATHER SUCH AS PRECIPITATION OR FOG.

+ - STATION NOT QUALITY CONTROLLED BY THE NATIONAL WEATHER SERVICE.
    USE DATA WITH CAUTION...ESPECIALLY DEWPOINT AND RELATIVE
    HUMIDITY OBSERVATIONS.

INZ001>003-010>013-019-020-220700-
NORTHWEST INDIANA

CITY           SKY/WX    TMP DP  RH WIND       PRES   REMARKS
KNOX *+        FAIR      41  32  70 CALM      30.36R
MONTICELLO +   FAIR      47  26  44 E5        30.34F
6HR MIN TEMP:  45; 6HR MAX TEMP:  55;


$$

LMZ046-743>745-220700-
SOUTHERN LAKE MICHIGAN

STATION/POSITION TIME  TEMP    WIND        PRES    WAVE
                       AIR SEA DIR/SP/G            HT
                 (UTC) (F)     (DEG/KT/KT) (MB)    (FT)
BURNS HARBOR     0540   41      80/  6/  7 1028.8S
MICHIGAN CITY    0530   41      30/  9/  9   N/A

$$

INZ004-005-014>016-021>024-220700-
NORTH CENTRAL INDIANA

CITY           SKY/WX    TMP DP  RH WIND       PRES   REMARKS
GOSHEN         FAIR      42  31  64 E7        30.36F
6HR MIN TEMP:  40; 6HR MAX TEMP:  53;

PERU/GRISSOM   MOCLDY   N/A N/A N/A CALM        N/A
SOUTH BEND     FAIR      42  27  55 NE6       30.37F
6HR MIN TEMP:  38; 6HR MAX TEMP:  51;

WARSAW +       FAIR      45  30  57 E7        30.35F

$$

INZ006>009-017-018-025>027-220700-
NORTHEAST INDIANA

CITY           SKY/WX    TMP DP  RH WIND       PRES   REMARKS
FORT WAYNE     CLOUDY    45  28  51 NE10      30.36F
6HR MIN TEMP:  44; 6HR MAX TEMP:  51;


$$

INZ028-029-035-036-043>045-051>053-220700-
WEST CENTRAL INDIANA

CITY           SKY/WX    TMP DP  RH WIND       PRES   REMARKS
LAFAYETTE      FAIR      47  30  51 NE9       30.32F
6HR MIN TEMP:  47; 6HR MAX TEMP:  54;

TERRE HAUTE    FAIR      53  25  33 E14       30.25F
6HR MIN TEMP:  51; 6HR MAX TEMP:  57;


$$

INZ030>032-037>040-046>048-054>057-064-065-220700-
CENTRAL INDIANA

CITY           SKY/WX    TMP DP  RH WIND       PRES   REMARKS
INDIANAPOLIS   CLOUDY    51  25  36 E12       30.30F
6HR MIN TEMP:  51; 6HR MAX TEMP:  58;

-EAGLE CREEK   FAIR      51  26  37 E10G17    30.30F
6HR MIN TEMP:  50; 6HR MAX TEMP:  58;

KOKOMO +       FAIR      44  31  60 E5        30.35F
6HR MIN TEMP:  43; 6HR MAX TEMP:  52;

MT COMFORT *+  FAIR      45  36  70 E7        30.32F
SHELBYVILLE    FAIR      49  29  46 NE8       30.31S
6HR MIN TEMP:  48; 6HR MAX TEMP:  57;

ZIONSVILLE +   FAIR      47  28  48 E7        30.33F
6HR MIN TEMP:  47; 6HR MAX TEMP:  54;


$$

INZ033-034-041-042-049-050-058-059-220700-
EAST CENTRAL INDIANA

CITY           SKY/WX    TMP DP  RH WIND       PRES   REMARKS
MUNCIE         FAIR      44  29  55 E6        30.34S
6HR MIN TEMP:  43; 6HR MAX TEMP:  55;

RICHMOND +     FAIR      41  32  70 NE9       30.33S

$$

INZ060-061-067>069-081>083-085>088-220700-
SOUTHWEST INDIANA

CITY           SKY/WX    TMP DP  RH WIND       PRES   REMARKS
EVANSVILLE     FAIR      56  33  42 E8        30.22S
6HR MIN TEMP:  56; 6HR MAX TEMP:  66;

HUNTINGBURG +  FAIR      56  28  34 E10       30.23F
6HR MIN TEMP:  55; 6HR MAX TEMP:  64;


$$

INZ062-063-066-070>080-084-089>092-220700-
SOUTH CENTRAL AND SOUTHEAST INDIANA

CITY           SKY/WX    TMP DP  RH WIND       PRES   REMARKS
BLOOMINGTON    FAIR      53  23  31 E12       30.27F
6HR MIN TEMP:  53; 6HR MAX TEMP:  58;

SEYMOUR +      FAIR      52  30  43 NE6       30.29F

$$





USA.gov is the U.S. government's official web portal to all federal, state and local government web resources and services.